Погода в Верхнеключевском

Россия / Курганская область     56°15′29″N   62°14′32″E
темп.,
°C
ветер,
м/с
пор.,
м/с
влажн.,
%
обл.,
%
осадки,
мм/ч
давл.,
гПа
погр.,
м
24 мая, вт
вт2423:00+6ююв3697100 0.1 1004123
02:00+7ююв3498100 0.0 100479
05:00+8юз369881 0.0 1006217
08:00+11ююз468536 0.0 1007441
11:00+15ю467262 0.0 10071033
14:00+13ююз2488100 0.2 1009271
17:00+14ссз2288100 1.3 1009140
20:00+13св2393100 1.1 101083
25 мая, ср
ср2523:00+13в3696100 1.4 1010113
02:00+13в4894100 0.5 1009158
05:00+13юв41188100 0.5 1007219
08:00+15ююв51376100 0.0 1008333
11:00+20ююв61261100 0.0 1007570
14:00+22ююв5957100 0.0 10071002
17:00+22ююв61357100 0.0 10061362
20:00+18ююв71866100 0.0 1005494
26 мая, чт
чт2623:00+13з6109294 0.9 1008282
02:00+9зсз4893100 0.0 1009269
05:00+9зсз2692100 0.1 1009286
08:00+9сз5889100 0.1 1009343
11:00+9сз5991100 1.5 1010633
14:00+9сз5886100 1.4 1012579
17:00+9ссз61389100 3.9 1010646
20:00+10ссз4118196 0.0 1010495
27 мая, пт
пт2723:00+7сз3787100 0.0 1012151
02:00+6зсз5128697 0.0 1013288
05:00+4зсз411905 0.0 1014250
08:00+9зсз597438 0.0 1014523
11:00+13з57586 0.0 10141411
14:00+15зюз565228 0.0 10141721
17:00+17юз455117 0.0 10131675
20:00+13ю4776100 0.0 1013157
28 мая, сб
сб2823:00+10ююв3577100 0.0 101462
02:00+9ююв34845 0.0 101360
05:00+8ююв35875 0.0 101393
08:00+12ю57785 0.0 1013379
11:00+17ююз67624 0.0 10121139
14:00+18юз7862100 0.6 10131315
17:00+18юз466559 0.9 10131162
20:00+15ююз3478100 0.4 101489